Home   Weather   Gdynia   Past weeks

Flag for Poland Past Weather in Gdynia, Poland — Yesterday and Last 2 Weeks

Now
28 °F

Light snow. Passing clouds.


Feels Like: 17 °F
Forecast: 29 / 35 °F
Wind: 14 mph from Southwest

Location: Gdansk-Rebiechowo

Current Time: Jan 18, 2017 at 11:24:56 pm

Latest Report: Jan 18, 2017 at 11:00 pm


Visibility: N/A

Pressure: 30.54 "Hg

Humidity: 93%

Dew Point: 27 °F

Location of GdyniaLocation

Past Weather in Gdynia — Graph

°F

Gdynia Temperature Yesterday

Maximum temperature yesterday: 30 °F (at 1:30 pm)
Minimum temperature yesterday: 16 °F (at 8:30 pm)
Average temperature yesterday: 25 °F

High & Low Weather Summary for the Past Weeks

 TemperatureHumidityPressure
High39 °F (Jan 4, 12:30 am)100% (Jan 9, 12:30 am)30.66 "Hg (Jan 9, 12:30 am)
Low7 °F (Jan 6, 6:30 pm)58% (Jan 6, 6:00 am)28.94 "Hg (Jan 4, 11:00 am)
Average25 °F88%29.97 "Hg
* Reported Jan 3 10:00 pm — Jan 18 10:00 pm, Gdynia, Weather by CustomWeather, © 2017

Note: Actual official high and low records may vary slightly from our data, if they occured in-between our weather recording intervals... More about our weather records

Advertising

Gdynia Weather History for the Previous 24 Hours

Scroll right to see more
 ConditionsComfort  
Time TempWeatherWind HumidityBarometerVisibility
10:00 pm
Wed, Jan 18
28 °FPassing clouds.15 mph93%30.57 "HgN/A
9:30 pm28 °FPassing clouds.15 mph93%30.57 "HgN/A
9:00 pm28 °FPassing clouds.13 mph93%30.57 "HgN/A
8:30 pm28 °FPassing clouds.13 mph93%30.57 "HgN/A
8:00 pm28 °FPartly cloudy.14 mph93%30.57 "HgN/A
7:30 pm28 °FPassing clouds.13 mph93%30.57 "HgN/A
7:00 pm28 °FPassing clouds.13 mph93%30.60 "HgN/A
6:30 pm28 °FPassing clouds.13 mph93%30.57 "HgN/A
6:00 pm28 °FPassing clouds.13 mph86%30.60 "HgN/A
5:30 pm28 °FPassing clouds.12 mph86%30.60 "HgN/A
5:00 pm28 °FClear.12 mph86%30.60 "Hg10 mi
4:30 pm28 °FClear.12 mph86%30.60 "Hg10 mi
4:00 pm28 °FClear.12 mph86%30.60 "Hg10 mi
3:30 pm28 °FSunny.10 mph86%30.60 "Hg10 mi
3:00 pm28 °FSunny.12 mph86%30.60 "Hg10 mi
2:30 pm28 °FSunny.12 mph86%30.60 "Hg10 mi
2:00 pm28 °FSunny.10 mph86%30.60 "Hg10 mi
1:30 pm28 °FSunny.13 mph86%30.60 "Hg10 mi
1:00 pm28 °FSunny.13 mph86%30.60 "Hg10 mi
12:30 pm28 °FPassing clouds.13 mph86%30.63 "HgN/A
12:00 pm28 °FPartly sunny.12 mph80%30.63 "HgN/A
11:30 am28 °FPartly sunny.12 mph80%30.63 "HgN/A
11:00 am28 °FScattered clouds.12 mph80%30.63 "HgN/A
10:30 am28 °FLight snow. Scattered clouds.12 mph80%30.63 "HgN/A
10:00 am28 °FLight snow. Broken clouds.12 mph80%30.63 "HgN/A
9:30 am27 °FPartly sunny.8 mph86%30.63 "HgN/A
9:00 am27 °FBroken clouds.8 mph86%30.63 "HgN/A
8:30 am27 °FBroken clouds.9 mph86%30.63 "HgN/A
8:00 am27 °FBroken clouds.8 mph93%30.60 "HgN/A
7:30 am27 °FClear.8 mph93%30.60 "Hg10 mi
7:00 am27 °FClear.8 mph93%30.60 "Hg10 mi
6:30 am27 °FClear.8 mph93%30.60 "Hg10 mi
6:00 am27 °FPassing clouds.7 mph93%30.60 "HgN/A
5:30 am27 °FPassing clouds.6 mph93%30.60 "HgN/A
5:00 am27 °FMostly cloudy.6 mph93%30.60 "HgN/A
4:30 am25 °FPassing clouds.6 mph100%30.60 "HgN/A
4:00 am25 °FPassing clouds.6 mph93%30.60 "HgN/A
3:30 am25 °FPassing clouds.7 mph93%30.63 "Hg5 mi
3:00 am25 °FPassing clouds.5 mph93%30.63 "Hg4 mi
2:30 am21 °FIce fog.2 mph93%30.63 "Hg3 mi
2:00 am19 °FIce fog.1 mph100%30.63 "Hg2 mi
1:30 am19 °FIce fog.1 mph93%30.63 "Hg2 mi
1:00 am19 °FIce fog.1 mph93%30.63 "Hg1 mi
12:30 am18 °FIce fog.1 mph93%30.63 "Hg1 mi
12:00 am18 °FIce fog.1 mph93%30.63 "Hg1 mi
11:30 pm
Tue, Jan 17
19 °FPassing clouds.1 mph93%30.63 "Hg1 mi
11:00 pm18 °FLight fog.3 mph93%30.63 "Hg0 mi
Weather by CustomWeather, © 2017

See weather overviewHow to use our weather pages